Weather History for Mineral Wells, TX

Change the Weather History Date:

Friday, November 23, 2012

  Actual Average Record
Temperature  
Mean Temperature 54 °F -  
Max Temperature 64 °F 62 °F 82 °F (2005)
Min Temperature 42 °F 40 °F 30 °F (2003)
Degree Days  
Heating Degree Days 11    
Growing Degree Days 4 (Base 50)    
Moisture  
Dew Point 30 °F    
Average Humidity 43    
Maximum Humidity 90    
Minimum Humidity 18    
Precipitation  
Precipitation 0.00 in - - ()
Sea Level Pressure  
Sea Level Pressure 30.32 in    
Wind  
Wind Speed 10 mph (NNE)    
Max Wind Speed 25 mph    
Max Gust Speed 31 mph    
Visibility 10 miles    
Events      
Averages and records for this station are not official NWS values.
T = Trace of Precipitation, MM = Missing Value Source: NWS Daily Summary

Daily Weather History Graph

Daily Weather History Graph

Search for Another Location

Airport:

Trip Planner

Search our weather history database for the weather conditions in past years. The results will help you decide how hot, cold, wet, or windy it might be!

Date:

Astronomy

Nov. 23, 2012 Rise Set
Actual Time 7:10 AM CST 5:27 PM CST
Civil Twilight 6:43 AM CST 5:53 PM CST
Nautical Twilight 6:13 AM CST 6:24 PM CST
Astronomical Twilight 5:43 AM CST 6:53 PM CST
Moon 2:31 PM CST (11/23) 2:43 AM CST (11/23)
Length of Visible Light 11h 10m
Length of Day
10h 17m
Waxing Gibbous, 80% of the Moon is Illuminated
Nov 23
Waxing Gibbous
Nov 28
Full
Dec 6
Last Quarter
Dec 13
New
Dec 19
First Quarter

Hourly Weather History & Observations

Time (CST) Temp. Windchill Dew Point Humidity Pressure Visibility Wind Dir Wind Speed Gust Speed Precip Events Conditions
12:53 AM 57.9 °F - 53.1 °F 84% 30.06 in 10.0 mi SE 6.9 mph - N/A   Clear
1:53 AM 55.9 °F - 52.0 °F 87% 30.08 in 10.0 mi Calm Calm - N/A   Scattered Clouds
2:53 AM 54.0 °F - 51.1 °F 90% 30.10 in 10.0 mi Calm Calm - N/A   Mostly Cloudy
3:53 AM 55.0 °F - 52.0 °F 89% 30.13 in 10.0 mi North 5.8 mph - N/A   Clear
4:53 AM 59.0 °F - 53.1 °F 81% 30.17 in 10.0 mi NNE 11.5 mph 20.7 mph N/A   Clear
5:53 AM 57.9 °F - 46.9 °F 67% 30.22 in 10.0 mi NNE 12.7 mph 20.7 mph N/A   Partly Cloudy
6:53 AM 59.0 °F - 39.0 °F 48% 30.27 in 10.0 mi North 16.1 mph 28.8 mph N/A   Overcast
7:53 AM 57.9 °F - 28.0 °F 32% 30.32 in 10.0 mi NNE 17.3 mph 28.8 mph N/A   Overcast
8:53 AM 57.9 °F - 24.1 °F 27% 30.37 in 10.0 mi NNE 25.3 mph 31.1 mph N/A   Overcast
9:53 AM 57.9 °F - 21.9 °F 25% 30.40 in 10.0 mi NNE 21.9 mph 29.9 mph N/A   Overcast
10:53 AM 61.0 °F - 21.9 °F 22% 30.41 in 10.0 mi NNE 19.6 mph 25.3 mph N/A   Overcast
11:53 AM 63.0 °F - 19.0 °F 18% 30.40 in 10.0 mi NNE 20.7 mph 27.6 mph N/A   Scattered Clouds
12:53 PM 64.9 °F - 23.0 °F 20% 30.38 in 10.0 mi NNE 16.1 mph 27.6 mph N/A   Partly Cloudy
1:53 PM 64.9 °F - 24.1 °F 21% 30.38 in 10.0 mi NNE 15.0 mph 25.3 mph N/A   Clear
2:53 PM 64.0 °F - 19.9 °F 18% 30.38 in 10.0 mi North 11.5 mph 21.9 mph N/A   Clear
3:53 PM 64.0 °F - 19.0 °F 18% 30.37 in 10.0 mi North 10.4 mph 19.6 mph N/A   Clear
4:53 PM 60.1 °F - 19.0 °F 20% 30.38 in 10.0 mi North 11.5 mph - N/A   Clear
5:53 PM 55.0 °F - 19.0 °F 24% 30.39 in 10.0 mi NNW 8.1 mph - N/A   Clear
6:53 PM 50.0 °F - 19.9 °F 31% 30.41 in 10.0 mi NNW 5.8 mph - N/A   Clear
7:53 PM 48.0 °F - 21.9 °F 36% 30.43 in 10.0 mi North 8.1 mph - N/A   Clear
8:53 PM 46.0 °F 43.1 °F 23.0 °F 40% 30.44 in 10.0 mi North 5.8 mph - N/A   Clear
9:53 PM 44.1 °F 41.5 °F 23.0 °F 43% 30.44 in 10.0 mi North 4.6 mph - N/A   Clear
10:53 PM 44.1 °F 41.5 °F 23.0 °F 43% 30.43 in 10.0 mi North 4.6 mph - N/A   Clear
11:53 PM 42.1 °F 40.2 °F 23.0 °F 47% 30.43 in 10.0 mi NNE 3.5 mph - N/A   Clear